Theta_e
337 347 350 351 356 359 363 360 353 354 353 350 351 352 353 353 354 359 346 348 349 349 346 345 345 346 346 343 343 342 340 339 340 340 336 339 339 340 335 341 335 338 329 333 334 331 334 337 333
344 345 351 352 362 367 362 356 358 353 351 350 351 351 352 354 351 349 350 350 349 350 348 346 345 346 341 339 337 334 332 333 333 334 337 339 341 338 334 342 339 340 331 330 341 337 329 333 331
349 349 352 359 364 364 364 356 356 351 349 350 353 353 352 351 350 351 350 348 348 347 348 340 345 332 333 338 339 341 340 341 339 339 339 340 342 340 335 341 337 340 338 336 333 335 335 329 332
351 351 353 363 365 358 360 355 354 352 351 353 352 353 351 351 351 350 349 348 345 345 346 331 333 342 339 342 341 339 340 340 342 340 341 341 340 340 341 339 335 340 339 338 338 336 331 329 330
351 352 360 363 362 355 356 353 350 353 352 353 353 353 351 351 350 349 347 347 345 346 335 332 337 340 340 340 339 338 339 340 341 341 342 341 342 340 340 338 334 337 340 339 337 336 334 333 329
351 354 363 365 356 352 353 352 350 352 353 353 352 351 351 350 349 348 347 346 346 346 346 338 342 339 337 336 340 339 342 341 343 342 343 342 342 334 334 335 334 337 339 340 337 334 332 333 329
352 358 361 359 358 357 356 353 352 353 353 353 352 353 351 350 349 348 346 345 344 344 346 344 341 334 342 342 339 337 340 343 343 341 335 331 335 337 335 332 333 334 339 340 337 333 331 332 328
353 356 361 360 361 358 350 354 353 353 355 353 354 353 351 350 349 348 346 343 343 345 346 349 344 343 344 341 340 341 344 342 337 332 332 334 342 343 344 336 333 335 337 338 337 337 335 329 334
351 359 362 358 360 358 351 355 353 353 353 353 354 352 350 349 349 348 345 342 345 343 344 346 348 345 345 341 342 340 338 336 336 343 343 348 348 344 342 336 334 334 337 338 336 336 335 334 342
349 360 359 354 353 350 352 354 353 353 353 353 355 352 350 349 349 348 344 341 344 343 341 344 348 347 347 348 341 339 338 343 344 348 347 348 347 345 337 337 334 335 338 340 337 335 342 344 344
347 352 356 353 352 351 350 354 352 353 353 353 353 351 350 349 348 346 344 341 341 342 341 344 344 345 346 346 340 345 346 347 345 346 348 348 346 343 342 339 342 340 340 343 342 345 344 346 347
346 347 348 349 353 354 355 354 355 351 352 353 353 351 350 348 347 345 344 343 341 342 342 345 341 345 347 343 347 346 346 349 345 346 348 345 344 344 347 347 348 342 346 348 346 347 345 343 344
344 346 346 350 353 352 347 352 354 346 345 353 352 350 349 348 346 344 344 342 341 342 342 345 340 346 347 346 343 347 344 345 346 344 348 348 348 348 347 345 348 345 343 344 343 348 344 346 345
341 342 345 349 352 353 350 352 352 352 352 354 352 350 349 348 346 345 344 342 341 340 342 344 339 346 347 346 349 347 341 347 348 346 350 347 349 347 347 344 347 344 347 344 344 342 345 345 344
333 338 340 343 351 352 350 352 353 353 352 352 353 350 349 348 347 345 345 342 341 340 342 344 343 348 346 345 347 343 344 349 346 349 347 348 348 346 348 346 345 347 346 340 340 341 343 339 342
331 333 339 339 344 350 351 357 350 352 353 352 353 350 350 349 348 346 345 343 341 341 342 344 343 346 345 346 347 345 349 348 349 349 346 347 348 351 348 348 346 347 346 343 344 344 343 344 342
330 332 336 338 343 347 352 356 352 351 353 352 352 351 350 350 348 346 345 343 342 341 341 344 344 346 345 345 343 346 349 349 347 349 351 344 347 347 346 347 349 343 349 348 341 341 343 340 343
329 331 333 337 339 344 349 354 351 345 350 351 351 351 349 349 349 347 346 343 343 342 340 343 345 346 346 349 346 347 346 347 349 348 348 348 347 346 348 349 346 349 345 346 347 343 344 342 342
329 329 331 332 335 343 345 351 348 346 346 346 350 352 350 349 349 348 347 343 344 343 341 342 345 346 345 349 345 349 347 348 349 349 350 349 352 352 346 349 341 350 347 344 346 345 345 340 342
330 330 329 330 333 345 352 349 345 344 343 344 350 350 351 349 348 348 346 344 344 343 344 343 344 347 345 350 347 346 349 347 347 350 353 346 352 352 351 350 346 344 350 345 349 343 343 339 337
328 328 328 329 332 342 344 352 349 343 345 348 351 348 349 350 349 348 347 345 344 344 344 344 344 349 346 348 346 346 346 349 348 351 351 346 348 348 352 348 349 347 349 345 346 346 345 341 340
328 328 327 328 329 334 337 352 351 350 351 344 343 349 348 350 349 348 347 346 344 345 344 344 345 347 345 346 345 345 346 348 346 350 350 345 349 350 349 350 345 346 345 345 340 340 348 343 345
327 328 328 327 327 329 333 337 351 352 349 348 343 349 347 348 349 349 347 347 345 346 346 345 345 346 345 342 346 346 346 346 350 345 350 348 349 348 354 350 349 342 350 350 348 348 347 346 345
326 326 328 328 327 328 328 333 339 354 348 343 343 349 348 347 349 350 348 347 346 346 347 347 347 343 342 339 344 344 344 347 347 344 351 350 350 347 351 353 348 344 348 351 346 341 344 344 345
327 326 327 328 328 328 327 327 334 341 346 343 344 349 350 349 348 350 350 349 348 346 347 347 347 346 340 333 338 344 342 348 345 347 352 351 352 352 346 350 350 346 344 350 348 344 342 341 342
327 327 328 330 329 328 329 328 329 331 346 346 346 348 348 351 350 350 350 351 350 348 347 348 349 347 345 338 329 340 340 342 347 348 346 350 346 349 350 348 346 342 347 348 349 347 345 340 339
327 329 327 328 329 330 330 330 329 330 332 349 345 340 343 348 351 351 351 350 351 350 348 348 350 348 347 342 332 331 333 332 345 345 349 346 348 348 347 349 349 348 345 351 350 349 349 353 347
324 326 328 328 331 333 330 333 332 332 331 336 347 347 347 349 347 350 351 351 351 351 351 349 350 350 349 348 340 330 330 328 330 341 347 350 346 346 353 347 346 345 350 349 352 351 349 351 348
324 325 327 328 330 331 331 332 334 337 333 333 347 344 339 341 341 348 347 351 351 352 352 351 351 353 353 351 349 343 333 331 329 336 341 345 350 351 346 351 348 349 347 351 351 348 354 353 348
320 324 325 329 332 331 331 331 332 334 333 333 332 342 341 343 345 342 343 349 352 352 352 353 352 353 355 354 353 351 348 338 331 329 336 345 345 348 349 346 351 351 348 348 350 346 347 354 354
Wind_Speed
9 10 5 3 4 6 2 2 12 15 10 10 18 20 18 11 1 12 29 23 22 20 19 19 16 14 12 12 12 10 8 7 7 6 5 7 9 9 10 11 12 12 12 12 13 11 12 11 12
10 7 7 4 4 5 2 2 6 12 16 22 22 21 21 18 22 33 30 26 24 21 19 19 17 15 13 11 10 8 7 7 6 7 8 9 9 9 10 11 11 12 13 13 13 13 13 12 13
13 10 5 4 4 2 1 11 14 18 22 20 9 14 10 21 33 30 31 30 26 20 18 19 16 13 12 12 11 11 10 9 9 9 10 9 10 10 10 10 12 12 13 14 14 14 13 12 15
5 5 7 5 7 12 7 23 15 18 14 26 20 15 27 28 25 33 31 28 25 22 18 19 17 15 14 13 12 12 11 10 10 11 11 11 11 10 11 11 12 13 14 13 13 13 13 14 16
7 5 5 7 7 10 12 10 17 16 14 20 23 21 16 23 31 32 31 29 27 23 18 19 17 16 15 14 13 13 12 12 12 12 12 12 11 10 10 11 13 13 13 13 14 13 13 14 18
4 5 5 7 5 7 14 18 11 17 20 24 30 29 15 31 34 32 28 31 27 23 20 20 17 15 14 14 13 13 13 14 14 14 14 14 12 11 10 11 12 13 13 13 14 14 13 14 19
7 6 3 7 6 9 13 19 16 16 15 22 28 19 21 30 33 29 27 32 24 24 19 18 15 17 14 14 13 13 15 15 14 13 14 15 14 13 11 11 13 14 14 14 14 15 15 16 20
13 4 2 6 0 6 19 13 14 17 4 24 26 12 25 35 33 29 28 26 25 24 19 17 12 16 14 14 14 14 14 14 14 15 16 16 16 15 16 12 13 15 15 15 16 16 18 21 24
6 5 8 2 8 15 39 12 12 16 19 16 10 24 33 41 34 29 29 26 28 23 20 17 16 15 11 14 14 14 14 14 16 17 15 15 11 11 13 13 14 15 16 16 16 16 19 22 20
12 6 8 12 2 4 7 19 20 18 21 16 20 26 36 39 35 31 32 29 28 24 21 19 20 14 12 12 12 14 15 15 12 11 8 13 12 5 13 16 16 17 16 16 19 14 18 17 13
22 16 8 20 21 22 21 14 13 21 15 25 31 35 40 38 34 31 32 26 26 24 23 27 17 16 17 10 13 11 13 10 7 6 9 10 11 9 9 13 15 14 16 9 13 12 18 11 8
18 21 18 6 10 11 7 10 13 23 8 19 32 37 41 39 35 32 31 29 26 25 27 26 23 19 19 11 13 10 10 14 3 6 11 12 7 13 5 8 7 2 11 10 5 6 13 18 15
18 18 9 8 8 6 6 7 12 16 25 23 32 35 40 37 34 31 31 27 26 22 25 22 21 15 14 15 16 12 12 8 12 7 9 17 7 6 6 5 5 17 7 3 6 6 7 12 10
18 16 17 7 8 16 14 8 15 22 22 32 30 32 34 37 36 31 31 28 27 24 23 23 21 18 16 15 8 14 12 12 7 5 4 10 12 8 6 6 4 5 6 9 8 9 8 5 11
20 19 12 15 12 15 5 5 10 19 24 31 34 30 34 33 36 31 31 30 28 25 22 23 21 17 15 21 12 15 11 8 5 6 5 3 10 7 7 9 7 10 6 7 7 6 4 8 8
13 18 17 17 18 14 14 14 8 21 20 25 35 30 34 33 32 31 31 29 28 26 23 22 19 19 17 20 16 13 6 10 6 6 4 9 8 7 10 7 10 7 6 5 8 6 1 10 8
15 15 20 20 21 18 19 5 4 17 20 24 29 36 34 33 34 32 31 30 30 28 27 21 22 21 18 17 20 13 7 8 9 9 6 3 3 5 5 1 8 7 5 5 5 6 6 9 8
17 18 19 18 18 21 20 12 14 28 12 31 27 35 34 35 35 34 33 30 30 29 29 23 23 23 20 18 16 14 13 13 12 10 11 4 4 5 5 5 3 5 7 8 7 6 5 5 6
20 21 19 17 19 13 11 20 14 12 17 13 29 35 35 34 33 34 32 31 31 29 30 27 25 25 25 21 20 16 11 11 7 11 14 5 6 6 3 6 7 6 4 11 10 4 5 4 8
21 21 20 17 20 15 14 15 14 19 15 8 28 33 38 38 35 35 33 33 32 33 30 30 29 27 26 19 20 16 16 13 13 11 9 5 9 9 6 5 10 10 3 6 4 10 6 3 4
19 20 18 17 16 18 16 14 13 12 8 16 31 32 35 42 41 38 36 36 35 35 33 35 33 27 27 24 22 19 17 17 12 14 12 7 6 7 8 5 6 8 7 4 7 6 8 8 7
19 16 19 19 18 14 18 10 11 13 15 22 30 34 35 38 40 39 38 38 38 37 36 34 36 31 30 26 23 23 20 15 18 18 12 7 9 6 7 5 5 6 8 8 8 7 4 9 5
18 18 15 16 18 19 23 13 11 24 16 18 26 31 39 38 43 43 43 41 39 38 40 37 35 36 31 33 26 25 22 19 15 14 18 15 11 11 9 7 6 7 6 6 8 7 11 8 4
16 18 17 18 15 16 21 19 16 19 20 17 32 43 43 41 41 44 44 41 39 38 40 38 37 39 37 34 31 29 28 22 16 17 18 17 12 13 14 12 9 7 12 11 10 10 13 12 9
17 13 12 14 14 18 19 19 14 14 26 21 18 41 39 43 41 41 43 43 43 43 43 43 41 40 40 38 37 33 31 28 24 20 18 15 17 13 13 16 13 9 10 9 11 10 13 15 12
18 19 14 17 15 18 20 20 17 23 30 41 46 36 29 43 42 40 45 47 49 47 47 45 45 42 42 42 39 38 34 33 29 19 24 18 16 19 18 17 13 9 9 8 8 9 12 11 13
21 19 21 23 22 15 17 17 23 20 21 31 27 23 32 26 31 42 42 45 46 47 49 49 47 45 42 43 43 43 40 35 34 28 23 24 21 15 16 14 11 13 10 9 9 7 8 12 11
16 18 17 15 21 24 18 20 14 19 17 18 19 29 37 41 27 23 42 43 43 46 45 46 45 47 45 41 44 44 44 42 37 34 28 25 24 22 13 17 19 14 16 14 14 9 9 11 9
13 15 18 17 16 18 16 16 16 12 21 19 21 29 22 17 42 38 35 41 45 44 43 45 45 44 46 44 42 45 45 44 42 36 35 31 28 24 27 17 20 20 17 20 19 16 16 18 12
14 20 19 14 18 15 16 18 22 11 7 19 22 37 42 48 45 21 52 43 47 46 46 46 46 45 45 45 42 44 43 44 44 44 39 38 34 32 28 28 21 21 21 20 22 20 20 16 16
Wind_Direction
171 128 140 228 265 238 258 108 119 107 108 124 87 90 98 166 274 122 145 146 149 145 159 152 149 143 141 137 136 133 121 117 120 115 105 100 100 92 93 88 67 73 77 98 89 101 108 114 122
173 202 222 268 246 228 193 136 72 101 113 101 94 97 74 86 105 124 134 143 142 144 143 149 144 141 139 136 134 132 127 124 125 118 104 107 109 100 102 90 81 86 81 92 91 94 99 114 122
186 209 250 230 246 93 28 93 261 116 119 121 95 57 62 107 122 129 137 141 137 138 146 148 140 140 135 124 124 120 118 118 116 117 116 114 110 103 100 90 93 89 91 92 95 91 91 109 111
177 234 257 257 265 229 119 158 212 114 111 96 107 82 105 127 130 136 138 140 140 141 153 145 138 134 133 133 126 123 118 116 113 115 115 113 105 101 96 91 100 97 96 94 90 103 95 98 112
236 252 258 249 240 151 148 165 138 130 130 115 101 111 111 124 134 139 140 145 143 144 152 140 138 136 131 127 125 122 120 114 111 112 109 103 99 96 98 97 103 101 97 93 93 102 93 93 118
241 253 268 257 144 156 156 139 165 142 113 111 111 114 114 138 141 148 147 146 138 134 138 137 137 137 131 128 127 126 120 116 110 109 105 98 94 89 96 101 103 108 99 98 90 91 92 98 120
243 268 256 327 288 224 142 152 154 105 175 121 131 120 134 149 148 150 151 146 132 136 137 139 142 137 131 130 128 124 119 118 114 109 102 93 88 85 86 100 109 117 103 98 98 96 90 95 112
257 271 232 219 156 9 297 123 128 134 250 140 140 140 153 155 153 158 153 147 138 142 138 139 142 138 136 133 129 128 128 119 110 97 96 90 79 79 82 99 116 117 102 106 105 100 95 94 104
247 263 301 276 177 156 235 146 139 158 145 148 164 143 153 156 158 158 153 145 145 139 143 145 146 125 150 140 133 129 123 112 106 100 105 96 79 59 93 100 112 110 108 107 103 103 101 106 106
218 264 292 319 58 274 205 151 163 148 119 118 105 130 150 155 162 164 153 154 155 149 152 154 158 148 122 148 130 127 111 109 102 94 96 101 111 106 93 95 99 106 110 102 80 119 113 109 112
231 252 88 283 288 211 220 154 142 147 152 141 137 145 154 159 165 166 155 160 159 162 157 158 149 142 148 158 111 117 128 123 145 131 102 110 126 134 86 102 88 102 116 90 64 92 96 125 120
237 244 280 331 328 142 11 328 302 90 31 162 144 151 157 163 167 170 159 167 157 168 157 154 159 154 172 136 149 153 129 157 116 169 113 168 141 132 159 95 126 31 103 170 135 83 92 87 98
239 250 277 198 203 96 144 27 257 121 148 149 140 153 161 168 169 172 163 164 159 165 157 154 153 161 168 166 163 169 140 173 182 206 173 154 146 129 138 117 186 130 112 114 97 97 86 110 118
253 239 237 199 263 174 173 191 263 138 182 151 145 160 168 170 172 175 167 162 162 170 160 160 163 169 162 165 187 153 157 165 169 154 203 142 126 146 124 140 109 113 133 132 119 119 124 118 100
277 271 256 230 211 235 190 19 52 131 162 144 151 165 173 180 175 175 171 164 167 173 164 167 164 174 182 173 148 147 193 165 188 172 171 142 148 162 164 148 172 102 118 140 139 130 166 109 102
265 253 256 247 222 217 215 214 209 142 138 155 154 167 179 186 178 178 172 170 171 174 173 167 170 174 190 170 160 177 158 168 172 202 223 181 167 168 159 112 144 127 148 110 153 147 181 139 107
241 244 234 251 209 210 209 149 106 331 263 162 163 165 182 186 182 183 176 172 174 177 176 171 175 174 180 180 178 172 187 166 184 169 224 198 174 147 131 130 152 126 136 160 104 146 107 129 133
239 224 244 232 246 200 207 100 148 203 268 159 170 163 179 188 187 183 176 174 173 178 179 180 180 179 180 182 174 180 178 184 177 197 211 197 128 140 184 149 188 136 133 139 150 185 64 159 87
266 280 236 238 231 227 223 132 137 265 255 285 163 168 177 189 191 181 178 177 174 178 182 184 179 189 185 185 177 181 182 174 176 201 193 159 151 189 178 146 161 136 141 151 140 161 142 116 141
252 264 275 272 251 182 149 161 167 190 239 252 175 181 178 180 193 180 183 181 181 180 185 185 184 195 196 189 174 178 190 184 189 211 161 227 168 192 183 161 147 149 138 155 187 178 159 196 175
235 249 262 274 280 199 213 156 206 220 346 283 246 186 189 178 192 181 188 184 186 185 189 188 190 196 202 183 179 188 200 187 196 198 211 218 195 203 172 213 169 160 166 189 197 162 152 140 117
246 244 254 277 279 270 235 221 171 211 172 249 285 179 195 185 186 183 188 189 188 188 191 195 194 198 204 184 191 191 195 200 191 204 212 215 198 214 193 225 198 185 193 218 155 155 177 177 182
254 257 258 241 266 276 267 256 172 171 186 182 283 215 189 195 187 185 189 192 190 188 188 198 201 198 206 192 191 190 190 197 203 208 203 211 208 198 224 233 228 187 168 187 164 191 188 187 183
250 252 265 270 256 247 251 261 250 166 179 176 218 244 184 189 192 187 188 191 191 189 187 195 204 205 207 199 189 198 189 194 199 198 201 195 215 213 196 227 242 223 185 214 208 195 189 184 200
221 239 237 242 240 247 236 243 248 220 167 166 199 241 187 180 190 188 184 188 192 192 192 195 205 209 209 207 196 197 202 190 198 207 197 204 208 214 202 211 234 224 204 207 204 193 189 199 203
223 225 231 230 236 243 236 249 237 254 189 183 189 207 283 178 184 190 188 191 192 194 192 193 202 210 211 210 205 203 205 196 200 201 206 201 209 217 226 212 226 237 213 209 223 220 211 210 216
250 223 237 260 265 253 259 234 229 245 250 195 168 152 209 269 187 185 192 194 195 195 196 195 199 211 214 211 214 207 212 209 201 202 199 213 206 215 229 215 231 246 236 231 225 221 217 215 222
239 262 235 233 252 262 265 257 257 202 229 238 167 171 185 222 274 271 187 195 199 199 199 197 200 209 215 217 216 216 214 218 212 203 207 205 209 205 217 230 244 240 215 225 239 224 244 227 234
241 257 264 275 239 251 259 258 268 246 201 218 158 162 158 173 225 253 257 197 198 200 199 200 200 205 209 215 218 218 221 220 218 214 209 212 202 210 219 213 225 237 231 217 229 224 222 235 234
248 270 266 247 246 265 253 257 262 316 266 200 215 169 182 177 183 217 221 229 190 196 198 200 201 203 210 213 215 216 216 223 222 217 217 215 214 211 216 222 222 228 231 228 225 232 217 236 235